Location: Wald
(31.7579°N, 86.6655°W)
Time: 00:45:36
(UTC+00:00)

IRS-P3 - Pass Details

Date: 14 July 2020
Orbit: 814 x 818 km, 98.8° (Epoch: 12 August)

Event Time Altitude Azimuth Distance (km) Brightness Sun altitude
Rises 08:38:43 0° 5° (N) 3,345 8.1 -23.5°
Reaches altitude 10° 08:41:08 10° 0° (N) 2,411 7.2 -23.1°
Maximum altitude 08:46:14 49° 287° (WNW) 1,049 4.5 -22.4°
Enters shadow 08:47:05 44° 258° (WSW) 1,110 4.4 -22.3°
